CZ-3B R/B (52256 NORAD) Tracking and Keplerian Element Data

This shows tracking and keplerian element data for the satellite.

Feedback or suggestion? Click here.




ElementValue
Catalog52256
NameCZ-3B R/B
Epoch Orbit51
Epoch Day126.52622751
Epoch Year2022
RAAN12.5459
Inclination28.5283
Eccentricity0.7204537
Argument of Perigee192.0496
Mean Anonmoly130.3995
Mean Motion2.40738515
Decay Rate0.0004277
L11 52256U 22038B 22126.52622751 .00042770 -23455-7 29703-2 0 9998
L22 52256 28.5283 12.5459 7204537 192.0496 130.3995 2.40738515 516



Live tracking and technical data element details for CZ-3B R/B (NORAD 52256). CZ-3B R/B can be tracked NOW for your location showing map with azimuth and elevation plus other details from your city location.







IsCatalogInMostPopularTable: catalog: 52256, numindb: 19
Update: records affected: 1



GetName: 52256 CZ-3B R/B

Hit Count: updated at: Sun, 11 Jun 2023 01:43:30 GMT